Weather History for KOFF - July, 2013

Change the Weather History Date:

Friday, July 19, 2013

  Actual Average Record
Temperature  
Mean Temperature 82 °F -  
Max Temperature 95 °F 85 °F 102 °F (2006)
Min Temperature 70 °F 67 °F 56 °F (2014)
Cooling Degree Days 18    
Growing Degree Days 32 (Base 50)    
Moisture  
Dew Point 66 °F    
Average Humidity 58    
Maximum Humidity 84    
Minimum Humidity 33    
Precipitation  
Precipitation 0.00 in - - ()
Sea Level Pressure  
Sea Level Pressure 29.90 in    
Wind  
Wind Speed 6 mph (NNE)    
Max Wind Speed 12 mph    
Max Gust Speed -    
Visibility 10 miles    
Events Rain    
Averages and records for this station are not official NWS values.
T = Trace of Precipitation, MM = Missing Value Source: NWS Daily Summary

Daily Weather History Graph

Daily Weather History Graph

Search for Another Location

Airport or City:

Trip Planner

Search our weather history database for the weather conditions in past years. The results will help you decide how hot, cold, wet, or windy it might be!

Date:

Astronomy

Jul. 19, 2013 Rise Set
Actual Time 6:07 AM CDT 8:51 PM CDT
Civil Twilight 5:35 AM CDT 9:24 PM CDT
Nautical Twilight 4:54 AM CDT 10:04 PM CDT
Astronomical Twilight 4:08 AM CDT 10:50 PM CDT
Moon 5:55 PM CDT (7/19) 2:49 AM CDT (7/19)
Length of Visible Light 15h 48m
Length of Day
14h 44m
Waxing Gibbous, 87% of the Moon is Illuminated
Jul 19
Waxing Gibbous
Jul 22
Full
Jul 29
Last Quarter
Aug 6
New
Aug 14
First Quarter

Hourly Weather History & Observations

Time (CDT) Temp. Heat Index Dew Point Humidity Pressure Visibility Wind Dir Wind Speed Gust Speed Precip Events Conditions
12:58 AM 81.1 °F 83.4 °F 66.4 °F 61% 29.93 in 10.0 mi SSW 11.5 mph - N/A   Clear
1:58 AM 81.1 °F 82.9 °F 64.9 °F 58% 29.92 in 10.0 mi South 6.9 mph - N/A   Clear
2:58 AM 77.4 °F - 65.3 °F 66% 29.91 in 10.0 mi South 4.6 mph - N/A   Clear
3:58 AM 74.5 °F - 64.9 °F 72% 29.89 in 10.0 mi SSE 5.8 mph - N/A   Clear
4:58 AM 71.6 °F - 65.3 °F 80% 29.89 in 10.0 mi SE 3.5 mph - N/A   Clear
5:58 AM 72.5 °F - 65.8 °F 80% 29.90 in 10.0 mi South 4.6 mph - N/A   Clear
6:58 AM 74.3 °F - 66.2 °F 76% 29.90 in 10.0 mi South 5.8 mph - N/A   Clear
7:58 AM 78.1 °F - 67.5 °F 70% 29.90 in 10.0 mi Variable 5.8 mph - N/A   Clear
8:58 AM 81.1 °F 84.0 °F 68.4 °F 65% 29.93 in 10.0 mi Calm Calm - N/A   Partly Cloudy
9:58 AM 81.3 °F 84.3 °F 68.4 °F 65% 29.92 in 10.0 mi WSW 6.9 mph - N/A   Clear
10:58 AM 87.1 °F 91.6 °F 69.4 °F 56% 29.92 in 10.0 mi West 6.9 mph - N/A   Partly Cloudy
11:58 AM 88.9 °F 94.2 °F 70.2 °F 54% 29.93 in 10.0 mi West 6.9 mph - N/A   Clear
12:58 PM 90.1 °F 94.9 °F 69.3 °F 50% 29.91 in 10.0 mi Variable 5.8 mph - N/A   Clear
1:58 PM 91.8 °F 97.0 °F 69.6 °F 48% 29.91 in 10.0 mi West 6.9 mph - N/A   Partly Cloudy
2:50 PM 93.2 °F 97.7 °F 68.0 °F 44% 29.92 in 9.0 mi NE 4.6 mph - N/A Rain Light Rain
2:58 PM 92.1 °F 96.7 °F 68.4 °F 46% 29.90 in 8.0 mi West 1.2 mph - 0.00 in Rain Light Rain
3:05 PM 91.4 °F 95.4 °F 68.0 °F 46% 29.92 in 10.0 mi ENE 3.5 mph - N/A   Partly Cloudy
3:58 PM 93.0 °F 95.0 °F 64.9 °F 39% 29.89 in 10.0 mi Variable 1.2 mph - 0.00 in   Clear
4:58 PM 94.5 °F 96.5 °F 64.8 °F 37% 29.88 in 10.0 mi NNW 4.6 mph - N/A   Clear
5:58 PM 94.1 °F 94.2 °F 60.6 °F 33% 29.87 in 10.0 mi NNE 4.6 mph - N/A   Partly Cloudy
6:58 PM 92.1 °F 95.3 °F 66.6 °F 43% 29.86 in 10.0 mi NW 8.1 mph - N/A   Clear
7:58 PM 88.2 °F 88.4 °F 61.7 °F 41% 29.86 in 10.0 mi North 5.8 mph - N/A   Clear
8:58 PM 84.4 °F 85.6 °F 63.7 °F 50% 29.87 in 10.0 mi North 3.5 mph - N/A   Clear
9:58 PM 79.7 °F - 61.0 °F 53% 29.90 in 10.0 mi NNE 4.6 mph - N/A   Clear
10:33 PM 75.2 °F - 62.6 °F 65% 29.91 in 8.0 mi Variable 2.3 mph - N/A   Clear
10:38 PM 75.2 °F - 64.4 °F 69% 29.91 in 8.0 mi NE 4.6 mph - N/A   Clear
10:58 PM 73.6 °F - 64.8 °F 74% 29.91 in 10.0 mi ENE 2.3 mph - N/A   Clear
11:58 PM 70.0 °F - 64.9 °F 84% 29.92 in 9.0 mi NE 1.2 mph - N/A   Partly Cloudy